Regional Weather Roundup
Issued by NWS

Home | Current Version | Previous Version | Text Only | Print | Product List | Glossary On
Versions: 1 2 3 4 5 6 7 8 9 10 11 12 13 14 15 16 17 18 19 20 21 22 23 24 25 26 27 28 29 30 31 32 33 34 35 36 37 38 39 40 41 42 43 44 45 46 47 48 49 50
000
ASUS44 KOUN 230410
RWROK

WEATHER ROUNDUP FOR OKLAHOMA
NATIONAL WEATHER SERVICE NORMAN OK
1100 PM CDT WED OCT 22 2014

NOTE: "FAIR" INDICATES FEW OR NO CLOUDS BELOW 12,000 FEET WITH NO
      SIGNIFICANT WEATHER AND/OR OBSTRUCTIONS TO VISIBILITY.

OKZ001>007-009>012-014-015-017-230500-
NORTHWEST OKLAHOMA AND THE PANHANDLE

CITY           SKY/WX    TMP DP  RH WIND       PRES   REMARKS
GAGE           MOCLDY    60  58  92 S13G20    30.09F
ENID/WOODRING    N/A     63  59  88 S5        30.11S
$$

OKZ016-021>023-033>039-044-045-230500-
SOUTHWEST OKLAHOMA

CITY           SKY/WX    TMP DP  RH WIND       PRES   REMARKS
LAWTON/REGL    MOCLDY    63  60  90 E3        30.11F
LAWTON/FT SILL MOCLDY    62  60  93 E2        30.11S
FREDERICK      MOCLDY    62  60  93 E7        30.09R
CLINTON        PTCLDY    60  57  89 S7        30.13S
HOBART         CLOUDY    61  61 100 E3        30.13S FOG
ALTUS AFB      CLOUDY    60  60 100 E3        30.12R
$$

OKZ018>020-024>031-230500-
CENTRAL OKLAHOMA

CITY           SKY/WX    TMP DP  RH WIND       PRES   REMARKS
OKLAHOMA CITY  CLOUDY    62  59  90 E5        30.12S
OKC/WILEY POST CLOUDY    62  60  93 CALM      30.12S
OKC/TINKER AFB CLOUDY    63  59  88 SE3       30.13S
STILLWATER     LGT RAIN  64  62  93 SW3       30.13R FOG
GUTHRIE        LGT RAIN  62  60  93 SE6       30.12S
$$

OKZ008-013-054>072-230500-
NORTHEAST OKLAHOMA

CITY           SKY/WX    TMP DP  RH WIND       PRES   REMARKS
TULSA          CLOUDY    68  55  63 S16G22    30.11R
TULSA/JONES    CLOUDY    67  55  65 S8        30.13R
PONCA CITY     LGT RAIN  63  61  93 SW5       30.12S FOG
BARTLESVILLE   CLOUDY    66  58  75 S6        30.13R
MUSKOGEE       MOCLDY    62  54  74 SE7       30.15S
$$

OKZ032-040>043-046>053-073>077-230500-
SOUTH CENTRAL/SOUTHEAST OKLAHOMA

CITY           SKY/WX    TMP DP  RH WIND       PRES   REMARKS
ARDMORE/DWNTWN CLOUDY    68  55  64 S3        30.12S
MCALESTER      CLOUDY    64  56  75 CALM      30.14S
$$




USA.gov is the U.S. government's official web portal to all federal, state and local government web resources and services.